Terminal Aerodrome Forecast
Issued by NWS Fort Wayne, IN

Home | Current Version | Previous Version | Graphics & Text | Print | Product List | Glossary On
Versions: 1 2 3 4 5 6 7 8 9 10 11 12
000
FTUS43 KIWX 301100
TAFFWA
TAF
KFWA 301120Z 3012/0112 36010KT P6SM BKN080
     FM301500 35012G18KT P6SM BKN040
     FM010000 33006KT P6SM BKN060=

USA.gov is the U.S. government's official web portal to all federal, state and local government web resources and services.